Showing default

GAOFEN 11-05, 60249

Orbit data source: Space-Track

GAOFEN 11-05, 60249 is a payload satellite owned by Yaogan Zongti (CN) in SSO that was launched on Fri, 19 Jul 2024 UTC via a CHANG ZHENG 4B launch vehicle from the Taiyaun Space Center, China (TSC). Payload-class satellites include a variety of spacecraft equipped with specific instruments for various scientific and technological missions. These include communications satellites like Starlink; space stations such as the ISS; scientific satellites like the Hubble; Earth observation satellites from companies like Planet Labs, Umbra, and HawkEye 360; GPS; miniature CubeSats for education and research; and military/defense satellites.

Loading next visibility...
Identifier
60249, 2024-130A
Orbit
SSO
Country
Flag of CNCN / PRC
Related business
Manufacturer
CAST/YWZB
Mission
Operational Defense Imaging
Bus & Motor
JB-16, Unknown motor
Mass
~3,000 kg wet, ~3,000 kg dry
Launch date (UTC)
2024-07-19 (1 year ago)
Launch vehicle
CHANG ZHENG 4B
Launch site
Taiyaun Space Center, China (TSC)
Object type
Payload
Rocket body
Debris
Shape & HBR
Box + 2 Pan, 4.0 m
Radar Cross Section
9.231 m², Large (>1 m²)

Expand to show TLE details & history
Last TLE update: 19 hours ago

TLE from 19 hours ago
0 GAOFEN 11-05
1 60249U 24130A   25306.52684817  .00007586  00000-0  31917-3 0  9998
2 60249  97.4240  22.6607 0004580 176.2175 183.9097 15.23661175 50951
Epoch: 2025-11-02T12:38Z
TLE epoch observation values (Epoch: 2025-11-02T12:38:39.681Z)
Latitude
-0.0001°
Longitude
150.95407°
Altitude
501.045 km
Speed
7.612 km/s
True Right ascension
01h 30m 38s
True Declination
0° 00' 00"
Sunlit
Object was in full shadow at epoch
Visualization orbit readout
Latitude
Unknown
Longitude
Unknown
Altitude
Unknown
Speed
Unknown
Apparent Right ascension
Unknown
Apparent Declination
Unknown
Sunlit
N/A
Visualization observer readout
Local Sidereal Time
03:41:19
Azimuth
Unknown
Elevation
Unknown
Doppler factor
Unknown
Orbital elements
Apogee altitude
494.917 km
Perigee altitude
488.624 km
Semi-major axis
6,869.907 km
Eccentricity
0.00046
Inclination
97.424°
RAAN
22.6607°
Arg. of periapsis
176.2175°
True anomaly
183.90612°
Mean anomaly
183.9097°
Eccentric anomaly
183.90791°
Mean motion
3.81168 °/min
Orbital period
94.45 mins
BSTAR
0.00031917
Loading maneuver chart data...
Computing Atmospheric mass density...
Loading historical data...
Loading historical data...
Loading historical data...
Loading historical data...
Loading historical data...
Loading historical data...
Loading historical data...
Other satellites on launch #130 in the year 2024 (2024-07-19 UTC)

Documentation

Showing up to 5 results
|